Home   Weather   Santa Ana   Past weeks

Flag for El Salvador Past Weather in Santa Ana, El Salvador — Yesterday and Last 2 Weeks

Now
90 °F

Passing clouds.


Feels Like: 98 °F
Forecast: N/A
Wind: 8 mph from Southeast

Location: San Salvador / Ilopango

Current Time: Apr 28, 2017 at 3:55:24 pm

Latest Report: Apr 28, 2017 at 2:50 pm


Visibility: 4 mi

Pressure: 29.89 "Hg (27.79 "Hg at 650m altitude)

Humidity: 59%

Dew Point: 73 °F

Location of Santa AnaLocation

Past Weather in Santa Ana — Graph

°F

Santa Ana Temperature Yesterday

Maximum temperature yesterday: 91 °F (at 12:50 pm)
Minimum temperature yesterday: 70 °F (at 5:50 am)
Average temperature yesterday: 81 °F

High & Low Weather Summary for the Past Weeks

 TemperatureHumidityPressure
High93 °F (Apr 14, 1:50 pm)100% (Apr 24, 2:50 pm)30.04 "Hg (Apr 24, 2:50 pm)
Low66 °F (Apr 22, 5:50 am)24% (Apr 13, 1:50 pm)29.86 "Hg (Apr 21, 4:50 pm)
Average80 °F64%29.95 "Hg
* Reported Apr 13 1:50 pm — Apr 28 1:50 pm, Santa Ana, Weather by CustomWeather, © 2017

Note: Actual official high and low records may vary slightly from our data, if they occured in-between our weather recording intervals... More about our weather records

Advertising

Santa Ana Weather History for the Previous 24 Hours

Scroll right to see more
 ConditionsComfort  
Time TempWeatherWind HumidityBarometerVisibility
1:50 pm
Fri, Apr 28
90 °FScattered clouds.8 mph55%29.89 "Hg4 mi
12:50 pm88 °FPassing clouds.No wind55%29.92 "HgN/A
11:50 am86 °FPassing clouds.7 mph59%29.95 "HgN/A
10:50 am88 °FClear.7 mph55%29.95 "HgN/A
9:50 am86 °FClear.7 mph55%29.95 "HgN/A
8:50 am84 °FSunny.3 mph48%30.04 "Hg10 mi
7:50 am75 °FHaze.5 mph83%29.95 "HgN/A
6:50 am75 °FSunny.No wind74%29.92 "HgN/A
5:50 am70 °FClear.3 mph83%29.92 "Hg5 mi
11:50 pm
Thu, Apr 27
73 °FClear.No wind69%29.92 "Hg10 mi
10:50 pm72 °FClear.No wind73%29.92 "Hg10 mi
9:50 pm77 °FClear.3 mph61%29.92 "Hg10 mi
8:50 pm77 °FClear.No wind65%29.92 "Hg10 mi
7:50 pm77 °FClear.3 mph65%29.89 "Hg10 mi
6:50 pm77 °FClear.7 mph61%29.89 "Hg10 mi
5:50 pm81 °FSunny.6 mph54%29.86 "Hg10 mi
4:50 pm84 °FSunny.7 mph51%29.86 "Hg10 mi
3:50 pm86 °FPassing clouds.8 mph49%29.86 "HgN/A
Weather by CustomWeather, © 2017

See weather overviewHow to use our weather pages